Weather History for Bradshaw AFB, HI

Change the Weather History Date:

Tuesday, November 26, 2013

  Actual Average Record
Temperature  
Mean Temperature 60 °F -  
Max Temperature 75 °F 64 °F 75 °F (2012)
Min Temperature 46 °F 46 °F 42 °F (2002)
Degree Days  
Heating Degree Days 4    
Growing Degree Days 10 (Base 50)    
Moisture  
Dew Point 17 °F    
Average Humidity 26    
Maximum Humidity 71    
Minimum Humidity 5    
Precipitation  
Precipitation 0.00 in - - ()
Sea Level Pressure  
Sea Level Pressure 30.33 in    
Wind  
Wind Speed 10 mph (SSE)    
Max Wind Speed 24 mph    
Max Gust Speed 34 mph    
Visibility 11 miles    
Events      
Averages and records for this station are not official NWS values.
T = Trace of Precipitation, MM = Missing Value Source: NWS Daily Summary

Daily Weather History Graph

Daily Weather History Graph

Search for Another Location

Airport:

Trip Planner

Search our weather history database for the weather conditions in past years. The results will help you decide how hot, cold, wet, or windy it might be!

Date:

Astronomy

Nov. 26, 2013 Rise Set
Actual Time 6:37 AM HST 5:41 PM HST
Civil Twilight 6:14 AM HST 6:05 PM HST
Nautical Twilight 5:47 AM HST 6:32 PM HST
Astronomical Twilight 5:20 AM HST 6:59 PM HST
Moon 12:41 AM HST (11/26) 1:08 PM HST (11/26)
Length of Visible Light 11h 51m
Length of Day
11h 04m
Last Quarter, 39% of the Moon is Illuminated
Nov 26
Last Quarter
Dec 2
New
Dec 9
First Quarter
Dec 16
Full
Dec 25
Last Quarter

Hourly Weather History & Observations

Time (HST) Temp. Windchill Dew Point Humidity Pressure Visibility Wind Dir Wind Speed Gust Speed Precip Events Conditions
12:56 AM 46.9 °F - 34.9 °F 63% 30.34 in 12.0 mi West 5.8 mph - N/A   Clear
1:56 AM 46.0 °F 43.9 °F 35.6 °F 67% 30.34 in 12.0 mi SSE 4.6 mph - N/A   Clear
2:56 AM 47.3 °F - 35.6 °F 64% 30.33 in 12.0 mi West 3.5 mph - N/A   Clear
3:56 AM 47.5 °F - 32.7 °F 57% 30.32 in 12.0 mi East 4.6 mph - N/A   Clear
4:56 AM 52.0 °F - 21.7 °F 31% 30.32 in 12.0 mi SW 5.8 mph - N/A   Clear
5:56 AM 53.1 °F - 16.9 °F 24% 30.33 in 12.0 mi West 4.6 mph - N/A   Clear
6:56 AM 49.6 °F - 12.6 °F 23% 30.35 in 12.0 mi NW 2.3 mph - N/A   Clear
7:56 AM 64.9 °F - -7.8 °F 5% 30.35 in 12.0 mi ESE 15.0 mph 21.9 mph N/A   Clear
8:57 AM 69.4 °F - -4.5 °F 5% 30.36 in 12.0 mi SE 17.3 mph 27.6 mph N/A   Clear
9:57 AM 71.1 °F - -0.6 °F 6% 30.37 in 12.0 mi SSE 17.3 mph 27.6 mph N/A   Clear
10:57 AM 73.4 °F - 9.9 °F 9% 30.37 in 12.0 mi South 12.7 mph 23.0 mph N/A   Clear
11:41 AM 71.6 °F - 14.0 °F 11% 30.36 in 12.0 mi SSW 12.7 mph 23.0 mph N/A   Clear
11:56 AM 74.1 °F - 14.7 °F 10% 30.35 in 12.0 mi SSE 15.0 mph 23.0 mph N/A   Clear
12:40 PM 75.2 °F - 12.2 °F 9% 30.32 in 12.0 mi SSE 13.8 mph 21.9 mph N/A   Clear
12:56 PM 75.9 °F - 8.4 °F 7% 30.32 in 12.0 mi SSE 12.7 mph 23.0 mph N/A   Clear
1:56 PM 69.6 °F - 45.9 °F 43% 30.31 in 12.0 mi WSW 8.1 mph 24.2 mph N/A   Clear
2:56 PM 73.8 °F - 7.0 °F 8% 30.27 in 9.0 mi SSE 21.9 mph 31.1 mph N/A   Clear
3:57 PM 71.1 °F - -3.3 °F 5% 30.27 in 7.0 mi SE 24.2 mph 34.5 mph N/A   Clear
4:56 PM 68.0 °F - 32.0 °F 26% 30.28 in 9.0 mi SE 24.2 mph 34.5 mph N/A   Clear
5:56 PM 66.2 °F - 32.0 °F 28% 30.30 in 12.0 mi SE 16.1 mph 26.5 mph N/A   Clear
6:56 PM 66.2 °F - 32.0 °F 28% 30.31 in 12.0 mi SE 18.4 mph 29.9 mph N/A   Clear
7:57 PM 63.1 °F - -9.0 °F 5% 30.33 in 12.0 mi SE 17.3 mph 25.3 mph N/A   Clear
8:56 PM 62.6 °F - -9.4 °F 5% 30.35 in 12.0 mi SE 15.0 mph 21.9 mph N/A   Clear
9:56 PM 53.8 °F - 44.4 °F 71% 30.37 in 9.0 mi South 3.5 mph - N/A   Clear
10:56 PM 60.6 °F - -10.8 °F 5% 30.36 in 12.0 mi SE 11.5 mph 19.6 mph N/A   Clear
11:56 PM 49.8 °F - 34.9 °F 56% 30.36 in 10.0 mi SE 2.3 mph - N/A   Clear